Zurück zum Katalog

STARLINK-3856

AktivKommunikationVLEO
NORAD 52459·PAYLOAD·🇺🇸 United States

Gestartet May 6, 2022 von Cape Canaveral Space Force Station

Loading…

Nächste Überflüge (nächste 24 Stunden)

TLE

AktuellSource: CelesTrak SupGP

Epoche: Sep 14, 2026, 13:51 UTC

1 52459C 22049J   26257.57756944  .00028622  00000+0  86857-3 0  2574
2 52459  53.1581 281.5950 0001144  80.0886 114.8409 15.33532423    19

Verfolge STARLINK-3856 in Echtzeit mit AllMySat

Download on the App Store